Flag for USA

Past Weather in Ruidoso, New Mexico, USA — Yesterday and Last 2 Weeks

Now
68 °F

Passing clouds.


Feels Like: 68 °F
Forecast: 82 / 60 °F
Wind: 9 mph from Northwest

Location: Ruidoso Regional

Current Time: Jul 5, 2020 at 1:46:02 am

Latest Report: Jul 5, 2020 at 12:55 am


Visibility: 10 mi

Pressure: 30.30 "Hg (23.86 "Hg at 2051m altitude)

Humidity: 49%

Dew Point: 48 °F

Location of RuidosoLocation

Past Weather in Ruidoso — Graph

°F

Ruidoso Temperature Yesterday

Maximum temperature yesterday: 82 °F (at 2:55 pm)
Minimum temperature yesterday: 55 °F (at 6:15 am)
Average temperature yesterday: 70 °F

High & Low Weather Summary for the Past Weeks

 TemperatureHumidityPressure
High90 °F (Jun 22, 1:55 pm)100% (Jun 24, 2:15 am)30.37 "Hg (Jun 24, 2:15 am)
Low50 °F (Jun 24, 4:55 am)7% (Jun 21, 1:35 pm)29.97 "Hg (Jun 28, 5:55 pm)
Average70 °F37%30.21 "Hg
* Reported Jun 20 12:15 am — Jul 5 12:35 am, Ruidoso. Weather by CustomWeather, © 2020

Note: Actual official high and low records may vary slightly from our data, if they occured in-between our weather recording intervals... More about our weather records

Ruidoso Weather History for the Previous 24 Hours

Scroll right to see more
 ConditionsComfort  
Time TempWeatherWind HumidityBarometerVisibility
12:35 am
Sun, Jul 5
68 °FPassing clouds.9 mph46%30.31 "Hg10 mi
12:15 am66 °FClear.13 mph49%30.28 "Hg10 mi
11:55 pm
Sat, Jul 4
66 °FClear.9 mph46%30.27 "Hg10 mi
11:35 pm68 °FClear.3 mph43%30.27 "Hg10 mi
11:15 pm68 °FPassing clouds.No wind46%30.27 "Hg10 mi
10:55 pm72 °FMostly cloudy.9 mph41%30.27 "Hg10 mi
10:35 pm72 °FMostly cloudy.14 mph41%30.28 "Hg10 mi
10:15 pm70 °FPassing clouds.N/A57%30.28 "Hg10 mi
9:55 pm72 °FPartly cloudy.5 mph57%30.27 "Hg10 mi
9:35 pm72 °FLight rain. Partly cloudy.8 mph57%30.26 "Hg10 mi
9:15 pm75 °FPartly cloudy.No wind44%30.25 "Hg10 mi
8:55 pm75 °FPassing clouds.8 mph44%30.24 "Hg10 mi
8:35 pm75 °FPassing clouds.9 mph41%30.24 "Hg10 mi
8:15 pm77 °FPassing clouds.9 mph39%30.24 "Hg10 mi
7:35 pm77 °FOvercast.13 mph39%30.23 "Hg10 mi
6:55 pm79 °FScattered clouds.10 mph37%30.22 "Hg10 mi
5:55 pm81 °FPassing clouds.15 mph34%30.21 "Hg10 mi
5:35 pm82 °FPassing clouds.13 mph32%30.21 "Hg10 mi
5:15 pm82 °FPassing clouds.14 mph32%30.22 "Hg10 mi
4:55 pm81 °FPassing clouds.13 mph34%30.23 "Hg10 mi
4:35 pm81 °FSunny.16 mph34%30.24 "Hg10 mi
4:15 pm81 °FSunny.15 mph34%30.25 "Hg10 mi
3:55 pm79 °FPassing clouds.14 mph37%30.26 "Hg10 mi
3:35 pm75 °FThunderstorms. Scattered clouds.10 mph47%30.28 "Hg10 mi
3:15 pm79 °FSunny.17 mph45%30.28 "Hg10 mi
2:55 pm82 °FThundershowers. Sunny.10 mph28%30.28 "Hg10 mi
2:35 pm77 °FScattered clouds.12 mph39%30.29 "Hg10 mi
1:55 pm75 °FThundershowers. Scattered clouds.13 mph61%30.31 "Hg10 mi
1:35 pm79 °FBroken clouds.12 mph42%30.32 "Hg10 mi
1:15 pm79 °FPassing clouds.3 mph42%30.32 "Hg10 mi
12:55 pm79 °FSunny.No wind42%30.32 "Hg10 mi
12:35 pm77 °FSunny.5 mph44%30.34 "Hg10 mi
12:15 pm75 °FSunny.7 mph47%30.35 "Hg10 mi
11:55 am75 °FSunny.3 mph47%30.36 "Hg10 mi
11:35 am73 °FSunny.No wind50%30.36 "Hg10 mi
11:15 am73 °FSunny.No wind53%30.37 "Hg10 mi
10:55 am72 °FSunny.7 mph57%30.37 "Hg10 mi
10:35 am70 °FSunny.9 mph60%30.37 "Hg10 mi
10:15 am70 °FSunny.8 mph60%30.36 "Hg10 mi
9:55 am68 °FPassing clouds.10 mph64%30.37 "Hg10 mi
9:35 am68 °FScattered clouds.10 mph64%30.37 "Hg10 mi
9:15 am66 °FScattered clouds.13 mph68%30.37 "Hg10 mi
8:55 am66 °FPartly sunny.8 mph68%30.37 "Hg10 mi
8:35 am64 °FSunny.3 mph73%30.37 "Hg10 mi
8:15 am63 °FSunny.5 mph77%30.36 "Hg10 mi
7:35 am63 °FSunny.No wind77%30.35 "Hg10 mi
7:15 am61 °FSunny.No wind83%30.35 "Hg10 mi
6:15 am55 °FSunny.6 mph94%30.35 "Hg10 mi
5:55 am57 °FClear.7 mph88%30.36 "Hg10 mi
5:35 am57 °FClear.9 mph88%30.36 "Hg10 mi
5:15 am57 °FClear.N/A88%30.35 "Hg10 mi
4:55 am57 °FClear.N/A88%30.35 "Hg10 mi
4:35 am57 °FClear.8 mph88%30.35 "Hg10 mi
4:15 am59 °FClear.N/A82%30.35 "Hg10 mi
3:55 am59 °FClear.N/A82%30.35 "Hg10 mi
3:35 am59 °FClear.5 mph82%30.35 "Hg10 mi
3:15 am61 °FPassing clouds.8 mph77%30.35 "Hg10 mi
2:55 am63 °FPassing clouds.9 mph73%30.35 "Hg10 mi
2:35 am63 °FPartly cloudy.8 mph73%30.34 "Hg10 mi
2:15 am63 °FLight rain. Mostly cloudy.9 mph77%30.34 "Hg10 mi
1:55 am63 °FMostly cloudy.8 mph73%30.34 "Hg10 mi
1:35 am64 °FPassing clouds.5 mph68%30.35 "Hg10 mi
1:15 am66 °FPartly cloudy.6 mph60%30.34 "Hg10 mi
Weather by CustomWeather, © 2020

See weather overview